Time,TemperatureF,DewpointF,PressureIn,WindDirection,WindDirectionDegrees,WindSpeedMPH,WindSpeedGustMPH,Humidity,HourlyPrecipIn,Conditions,Clouds,dailyrainin,SoftwareType,DateUTC
2013-05-31 00:01:00,70.0,67.2,29.98,South,177,0.0,0.0,91,0.00,,,0.00,WeatherCatV1.15B25,2013-05-31 04:01:00,
2013-05-31 00:06:00,70.0,67.2,29.98,South,177,0.0,0.0,91,0.00,,,0.00,WeatherCatV1.15B25,2013-05-31 04:06:00,
2013-05-31 00:11:00,69.9,67.1,29.98,South,177,0.0,0.0,91,0.00,,,0.00,WeatherCatV1.15B25,2013-05-31 04:11:00,
2013-05-31 00:16:00,69.8,67.4,29.98,South,177,0.0,0.0,92,0.00,,,0.00,WeatherCatV1.15B25,2013-05-31 04:16:00,
2013-05-31 00:21:00,69.8,67.4,29.98,South,177,0.0,0.0,92,0.00,,,0.00,WeatherCatV1.15B25,2013-05-31 04:21:00,
2013-05-31 00:26:00,69.9,67.5,29.98,South,177,0.0,0.0,92,0.00,,,0.00,WeatherCatV1.15B25,2013-05-31 04:26:00,
2013-05-31 00:31:00,69.9,67.5,29.98,South,177,0.0,0.0,92,0.00,,,0.00,WeatherCatV1.15B25,2013-05-31 04:31:00,
2013-05-31 00:36:00,69.9,67.5,29.98,South,177,0.0,0.0,92,0.00,,,0.00,WeatherCatV1.15B25,2013-05-31 04:36:00,
2013-05-31 00:41:00,69.9,67.5,29.98,South,177,0.0,0.0,92,0.00,,,0.00,WeatherCatV1.15B25,2013-05-31 04:41:00,
2013-05-31 00:46:00,69.9,67.5,29.98,South,177,0.0,0.0,92,0.00,,,0.00,WeatherCatV1.15B25,2013-05-31 04:46:00,
2013-05-31 00:51:00,69.8,67.4,29.98,South,177,0.0,0.0,92,0.00,,,0.00,WeatherCatV1.15B25,2013-05-31 04:51:00,
2013-05-31 00:56:00,69.9,67.5,29.99,South,177,0.0,0.0,92,0.00,,,0.00,WeatherCatV1.15B25,2013-05-31 04:56:00,
2013-05-31 01:01:00,69.9,67.5,29.99,South,177,0.0,0.0,92,0.00,,,0.00,WeatherCatV1.15B25,2013-05-31 05:01:00,
2013-05-31 01:06:00,69.9,67.5,29.99,SSW,205,0.0,0.0,92,0.00,,,0.00,WeatherCatV1.15B25,2013-05-31 05:06:00,
2013-05-31 01:11:00,70.0,67.6,29.99,SSW,205,0.0,0.0,92,0.00,,,0.00,WeatherCatV1.15B25,2013-05-31 05:11:00,
2013-05-31 01:16:00,70.0,67.6,29.99,SSW,205,0.0,0.0,92,0.00,,,0.00,WeatherCatV1.15B25,2013-05-31 05:16:00,
2013-05-31 01:21:00,70.0,67.6,29.99,SSW,205,0.0,0.0,92,0.00,,,0.00,WeatherCatV1.15B25,2013-05-31 05:21:00,
2013-05-31 01:26:00,70.0,67.6,29.99,SSW,207,0.0,0.0,92,0.00,,,0.00,WeatherCatV1.15B25,2013-05-31 05:26:00,
2013-05-31 01:31:00,70.1,67.7,29.99,SSW,213,0.0,0.0,92,0.00,,,0.00,WeatherCatV1.15B25,2013-05-31 05:31:00,
2013-05-31 01:36:00,70.1,67.7,29.99,SSW,213,0.0,0.0,92,0.00,,,0.00,WeatherCatV1.15B25,2013-05-31 05:36:00,
2013-05-31 01:41:00,70.1,67.7,29.99,SSW,213,0.0,0.0,92,0.00,,,0.00,WeatherCatV1.15B25,2013-05-31 05:41:00,
2013-05-31 01:44:00,70.1,67.7,29.99,SSW,213,0.0,0.0,92,0.00,,,0.00,WeatherCatV1.15B25,2013-05-31 05:44:00,
2013-05-31 01:49:00,70.0,67.6,29.99,SSW,213,0.0,0.0,92,0.00,,,0.00,WeatherCatV1.15B25,2013-05-31 05:49:00,
2013-05-31 01:54:00,70.0,67.2,29.99,SSW,213,0.0,0.0,91,0.00,,,0.00,WeatherCatV1.15B25,2013-05-31 05:54:00,
2013-05-31 01:59:00,69.9,67.5,29.99,SSW,213,0.0,0.0,92,0.00,,,0.00,WeatherCatV1.15B25,2013-05-31 05:59:00,
2013-05-31 02:04:00,69.8,67.4,29.99,SSW,213,0.0,0.0,92,0.00,,,0.00,WeatherCatV1.15B25,2013-05-31 06:04:00,
2013-05-31 02:09:00,69.7,67.3,29.99,SSW,213,0.0,0.0,92,0.00,,,0.00,WeatherCatV1.15B25,2013-05-31 06:09:00,
2013-05-31 02:14:00,69.6,67.2,29.99,SSW,213,0.0,0.0,92,0.00,,,0.00,WeatherCatV1.15B25,2013-05-31 06:14:00,
2013-05-31 02:19:00,69.6,67.2,29.99,West,262,1.0,4.0,92,0.00,,,0.00,WeatherCatV1.15B25,2013-05-31 06:19:00,
2013-05-31 02:24:00,69.7,67.3,29.99,West,262,0.0,0.0,92,0.00,,,0.00,WeatherCatV1.15B25,2013-05-31 06:24:00,
2013-05-31 02:29:00,69.7,67.3,29.99,West,263,0.0,0.0,92,0.00,,,0.00,WeatherCatV1.15B25,2013-05-31 06:29:00,
2013-05-31 02:34:00,69.6,67.2,29.99,West,263,0.0,0.0,92,0.00,,,0.00,WeatherCatV1.15B25,2013-05-31 06:34:00,
2013-05-31 02:39:00,69.5,67.1,29.99,West,263,0.0,0.0,92,0.00,,,0.00,WeatherCatV1.15B25,2013-05-31 06:39:00,
2013-05-31 02:44:00,69.4,67.0,29.99,West,263,0.0,0.0,92,0.00,,,0.00,WeatherCatV1.15B25,2013-05-31 06:44:00,
2013-05-31 02:49:00,69.3,66.9,29.99,West,263,0.0,0.0,92,0.00,,,0.00,WeatherCatV1.15B25,2013-05-31 06:49:00,
2013-05-31 02:54:00,69.2,67.1,29.99,West,263,0.0,0.0,93,0.00,,,0.00,WeatherCatV1.15B25,2013-05-31 06:54:00,
2013-05-31 02:59:00,69.0,66.9,29.99,West,263,0.0,0.0,93,0.00,,,0.00,WeatherCatV1.15B25,2013-05-31 06:59:00,
2013-05-31 03:04:00,68.8,66.7,29.99,West,263,0.0,0.0,93,0.00,,,0.00,WeatherCatV1.15B25,2013-05-31 07:04:00,
2013-05-31 03:09:00,68.7,66.6,29.99,West,263,0.0,0.0,93,0.00,,,0.00,WeatherCatV1.15B25,2013-05-31 07:09:00,
2013-05-31 03:14:00,68.5,66.4,29.99,West,263,0.0,0.0,93,0.00,,,0.00,WeatherCatV1.15B25,2013-05-31 07:14:00,
2013-05-31 03:19:00,68.3,66.5,29.99,West,263,0.0,0.0,94,0.00,,,0.00,WeatherCatV1.15B25,2013-05-31 07:19:00,
2013-05-31 03:24:00,68.1,66.3,29.99,West,263,0.0,0.0,94,0.00,,,0.00,WeatherCatV1.15B25,2013-05-31 07:24:00,
2013-05-31 03:29:00,68.0,66.2,29.99,West,263,0.0,0.0,94,0.00,,,0.00,WeatherCatV1.15B25,2013-05-31 07:29:00,
2013-05-31 03:34:00,67.9,66.1,29.99,West,263,0.0,0.0,94,0.00,,,0.00,WeatherCatV1.15B25,2013-05-31 07:34:00,
2013-05-31 03:39:00,67.7,65.9,29.99,West,263,0.0,0.0,94,0.00,,,0.00,WeatherCatV1.15B25,2013-05-31 07:39:00,
2013-05-31 03:44:00,67.6,65.8,29.99,West,263,0.0,0.0,94,0.00,,,0.00,WeatherCatV1.15B25,2013-05-31 07:44:00,
2013-05-31 03:49:00,67.6,66.1,29.99,West,263,0.0,0.0,95,0.00,,,0.00,WeatherCatV1.15B25,2013-05-31 07:49:00,
2013-05-31 03:54:00,67.4,65.9,29.99,West,263,0.0,0.0,95,0.00,,,0.00,WeatherCatV1.15B25,2013-05-31 07:54:00,
2013-05-31 03:59:00,67.3,65.5,29.99,West,263,0.0,0.0,94,0.00,,,0.00,WeatherCatV1.15B25,2013-05-31 07:59:00,
2013-05-31 04:04:00,67.2,65.7,29.99,West,263,0.0,0.0,95,0.00,,,0.00,WeatherCatV1.15B25,2013-05-31 08:04:00,
2013-05-31 04:09:00,67.2,65.7,29.99,West,263,0.0,0.0,95,0.00,,,0.00,WeatherCatV1.15B25,2013-05-31 08:09:00,
2013-05-31 04:14:00,67.0,65.5,29.99,West,263,0.0,0.0,95,0.00,,,0.00,WeatherCatV1.15B25,2013-05-31 08:14:00,
2013-05-31 04:19:00,66.9,65.4,29.99,West,263,0.0,0.0,95,0.00,,,0.00,WeatherCatV1.15B25,2013-05-31 08:19:00,
2013-05-31 04:24:00,66.7,65.2,30.00,West,262,0.0,0.0,95,0.00,,,0.00,WeatherCatV1.15B25,2013-05-31 08:24:00,
2013-05-31 04:29:00,66.6,65.1,30.00,West,263,0.0,0.0,95,0.00,,,0.00,WeatherCatV1.15B25,2013-05-31 08:29:00,
2013-05-31 04:34:00,66.5,65.0,30.00,West,263,0.0,0.0,95,0.00,,,0.00,WeatherCatV1.15B25,2013-05-31 08:34:00,
2013-05-31 04:39:00,66.4,65.2,30.00,West,263,0.0,0.0,96,0.00,,,0.00,WeatherCatV1.15B25,2013-05-31 08:39:00,
2013-05-31 04:44:00,66.4,65.2,30.00,West,263,0.0,0.0,96,0.00,,,0.00,WeatherCatV1.15B25,2013-05-31 08:44:00,
2013-05-31 04:49:00,66.3,65.1,30.00,West,263,0.0,0.0,96,0.00,,,0.00,WeatherCatV1.15B25,2013-05-31 08:49:00,
2013-05-31 04:54:00,66.2,65.0,30.00,West,263,0.0,0.0,96,0.00,,,0.00,WeatherCatV1.15B25,2013-05-31 08:54:00,
2013-05-31 04:59:00,66.1,64.9,30.00,West,263,0.0,0.0,96,0.00,,,0.00,WeatherCatV1.15B25,2013-05-31 08:59:00,
2013-05-31 05:04:00,66.0,64.8,30.00,West,263,0.0,0.0,96,0.00,,,0.00,WeatherCatV1.15B25,2013-05-31 09:04:00,
2013-05-31 05:09:00,66.0,64.8,30.00,West,262,0.0,0.0,96,0.00,,,0.00,WeatherCatV1.15B25,2013-05-31 09:09:00,
2013-05-31 05:14:00,65.9,64.7,30.00,West,263,0.0,0.0,96,0.00,,,0.00,WeatherCatV1.15B25,2013-05-31 09:14:00,
2013-05-31 05:19:00,65.8,64.6,30.00,West,263,0.0,0.0,96,0.00,,,0.00,WeatherCatV1.15B25,2013-05-31 09:19:00,
2013-05-31 05:24:00,65.7,64.5,30.00,West,263,0.0,0.0,96,0.00,,,0.00,WeatherCatV1.15B25,2013-05-31 09:24:00,
2013-05-31 05:29:00,65.6,64.4,30.00,West,263,0.0,0.0,96,0.00,,,0.00,WeatherCatV1.15B25,2013-05-31 09:29:00,
2013-05-31 05:34:00,65.5,64.3,30.00,West,263,0.0,0.0,96,0.00,,,0.00,WeatherCatV1.15B25,2013-05-31 09:34:00,
2013-05-31 05:39:00,65.4,64.2,30.00,West,263,0.0,0.0,96,0.00,,,0.00,WeatherCatV1.15B25,2013-05-31 09:39:00,
2013-05-31 05:44:00,65.4,64.2,30.00,West,263,0.0,0.0,96,0.00,,,0.00,WeatherCatV1.15B25,2013-05-31 09:44:00,
2013-05-31 05:49:00,65.4,64.2,30.00,West,263,0.0,0.0,96,0.00,,,0.00,WeatherCatV1.15B25,2013-05-31 09:49:00,
2013-05-31 05:54:00,65.3,64.1,30.01,West,263,0.0,0.0,96,0.00,,,0.00,WeatherCatV1.15B25,2013-05-31 09:54:00,
2013-05-31 05:59:00,65.3,64.1,30.01,West,263,0.0,0.0,96,0.00,,,0.00,WeatherCatV1.15B25,2013-05-31 09:59:00,
2013-05-31 06:04:00,65.4,64.2,30.01,West,263,0.0,0.0,96,0.00,,,0.00,WeatherCatV1.15B25,2013-05-31 10:04:00,
2013-05-31 06:09:00,65.4,64.2,30.01,West,263,0.0,0.0,96,0.00,,,0.00,WeatherCatV1.15B25,2013-05-31 10:09:00,
2013-05-31 06:14:00,65.6,64.7,30.01,West,263,0.0,0.0,97,0.00,,,0.00,WeatherCatV1.15B25,2013-05-31 10:14:00,
2013-05-31 06:19:00,65.7,64.8,30.01,West,263,0.0,0.0,97,0.00,,,0.00,WeatherCatV1.15B25,2013-05-31 10:19:00,
2013-05-31 06:24:00,65.9,65.0,30.02,West,263,0.0,0.0,97,0.00,,,0.00,WeatherCatV1.15B25,2013-05-31 10:24:00,
2013-05-31 06:29:00,66.2,65.3,30.02,West,263,0.0,0.0,97,0.00,,,0.00,WeatherCatV1.15B25,2013-05-31 10:29:00,
2013-05-31 06:34:00,66.5,65.6,30.02,West,263,0.0,0.0,97,0.00,,,0.00,WeatherCatV1.15B25,2013-05-31 10:34:00,
2013-05-31 06:39:00,66.7,65.5,30.01,West,263,0.0,0.0,96,0.00,,,0.00,WeatherCatV1.15B25,2013-05-31 10:39:00,
2013-05-31 06:44:00,67.0,65.8,30.01,West,263,0.0,0.0,96,0.00,,,0.00,WeatherCatV1.15B25,2013-05-31 10:44:00,
2013-05-31 06:49:00,67.5,66.0,30.02,WSW,254,1.0,2.0,95,0.00,,,0.00,WeatherCatV1.15B25,2013-05-31 10:49:00,
2013-05-31 06:54:00,68.0,66.2,30.02,WSW,246,0.0,3.0,94,0.00,,,0.00,WeatherCatV1.15B25,2013-05-31 10:54:00,
2013-05-31 06:59:00,68.8,66.4,30.02,WSW,246,1.0,2.0,92,0.00,,,0.00,WeatherCatV1.15B25,2013-05-31 10:59:00,
2013-05-31 07:04:00,69.4,66.7,30.02,SW,236,0.0,2.0,91,0.00,,,0.00,WeatherCatV1.15B25,2013-05-31 11:04:00,
2013-05-31 07:09:00,69.9,66.8,30.02,SW,221,0.0,0.0,90,0.00,,,0.00,WeatherCatV1.15B25,2013-05-31 11:09:00,
2013-05-31 07:14:00,70.4,66.7,30.02,WSW,252,0.0,1.0,88,0.00,,,0.00,WeatherCatV1.15B25,2013-05-31 11:14:00,
2013-05-31 07:19:00,70.9,67.2,30.02,WSW,255,0.0,2.0,88,0.00,,,0.00,WeatherCatV1.15B25,2013-05-31 11:19:00,
2013-05-31 07:24:00,71.3,67.2,30.02,SSW,213,0.0,0.0,87,0.00,,,0.00,WeatherCatV1.15B25,2013-05-31 11:24:00,
2013-05-31 07:29:00,71.7,67.3,30.02,WSW,237,1.0,2.0,86,0.00,,,0.00,WeatherCatV1.15B25,2013-05-31 11:29:00,
2013-05-31 07:34:00,72.1,67.7,30.02,WSW,250,0.0,1.0,86,0.00,,,0.00,WeatherCatV1.15B25,2013-05-31 11:34:00,
2013-05-31 07:39:00,72.6,67.8,30.02,WSW,250,0.0,0.0,85,0.00,,,0.00,WeatherCatV1.15B25,2013-05-31 11:39:00,
2013-05-31 07:44:00,73.1,67.6,30.02,SW,225,1.0,2.0,83,0.00,,,0.00,WeatherCatV1.15B25,2013-05-31 11:44:00,
2013-05-31 07:49:00,73.6,67.8,30.02,SW,221,0.0,0.0,82,0.00,,,0.00,WeatherCatV1.15B25,2013-05-31 11:49:00,
2013-05-31 07:54:00,74.0,68.1,30.02,SW,227,0.0,1.0,82,0.00,,,0.00,WeatherCatV1.15B25,2013-05-31 11:54:00,
2013-05-31 07:59:00,74.6,68.4,30.02,SW,224,0.0,2.0,81,0.00,,,0.00,WeatherCatV1.15B25,2013-05-31 11:59:00,
2013-05-31 08:04:00,75.0,68.4,30.02,West,263,0.0,1.0,80,0.00,,,0.00,WeatherCatV1.15B25,2013-05-31 12:04:00,
2013-05-31 08:09:00,75.5,68.9,30.02,SW,234,0.0,2.0,80,0.00,,,0.00,WeatherCatV1.15B25,2013-05-31 12:09:00,
2013-05-31 08:14:00,75.8,68.8,30.02,SW,215,0.0,0.0,79,0.00,,,0.00,WeatherCatV1.15B25,2013-05-31 12:14:00,
2013-05-31 08:19:00,76.3,68.2,30.02,WSW,237,0.0,5.0,76,0.00,,,0.00,WeatherCatV1.15B25,2013-05-31 12:19:00,
2013-05-31 08:24:00,76.9,68.4,30.02,WSW,246,0.0,2.0,75,0.00,,,0.00,WeatherCatV1.15B25,2013-05-31 12:24:00,
2013-05-31 08:29:00,77.5,68.9,30.02,South,191,1.0,2.0,75,0.00,,,0.00,WeatherCatV1.15B25,2013-05-31 12:29:00,
2013-05-31 08:34:00,78.0,69.0,30.02,WSW,240,1.0,1.0,74,0.00,,,0.00,WeatherCatV1.15B25,2013-05-31 12:34:00,
2013-05-31 08:39:00,78.5,69.1,30.02,SW,234,0.0,1.0,73,0.00,,,0.00,WeatherCatV1.15B25,2013-05-31 12:39:00,
2013-05-31 08:44:00,78.9,69.1,30.02,SW,232,0.0,1.0,72,0.00,,,0.00,WeatherCatV1.15B25,2013-05-31 12:44:00,
2013-05-31 08:49:00,79.5,69.2,30.02,SW,219,0.0,1.0,71,0.00,,,0.00,WeatherCatV1.15B25,2013-05-31 12:49:00,
2013-05-31 08:54:00,79.9,68.4,30.02,SW,217,0.0,4.0,68,0.00,,,0.00,WeatherCatV1.15B25,2013-05-31 12:54:00,
2013-05-31 08:59:00,80.3,69.2,30.02,SW,217,0.0,0.0,69,0.00,,,0.00,WeatherCatV1.15B25,2013-05-31 12:59:00,
2013-05-31 09:04:00,81.1,69.5,30.02,SW,217,0.0,0.0,68,0.00,,,0.00,WeatherCatV1.15B25,2013-05-31 13:04:00,
2013-05-31 09:09:00,81.8,69.7,30.02,WSW,246,0.0,1.0,67,0.00,,,0.00,WeatherCatV1.15B25,2013-05-31 13:09:00,
2013-05-31 09:14:00,82.2,69.2,30.02,WSW,244,1.0,1.0,65,0.00,,,0.00,WeatherCatV1.15B25,2013-05-31 13:14:00,
2013-05-31 09:19:00,82.5,69.1,30.02,SW,219,2.0,2.0,64,0.00,,,0.00,WeatherCatV1.15B25,2013-05-31 13:19:00,
2013-05-31 09:24:00,82.9,69.4,30.01,South,186,0.0,3.0,64,0.00,,,0.00,WeatherCatV1.15B25,2013-05-31 13:24:00,
2013-05-31 09:29:00,83.3,69.8,30.01,West,270,0.0,0.0,64,0.00,,,0.00,WeatherCatV1.15B25,2013-05-31 13:29:00,
2013-05-31 09:34:00,83.6,70.1,30.01,WSW,237,0.0,3.0,64,0.00,,,0.00,WeatherCatV1.15B25,2013-05-31 13:34:00,
2013-05-31 09:39:00,83.9,69.5,30.01,SSW,207,4.0,5.0,62,0.00,,,0.00,WeatherCatV1.15B25,2013-05-31 13:39:00,
2013-05-31 09:44:00,84.2,69.7,30.01,West,259,0.0,1.0,62,0.00,,,0.00,WeatherCatV1.15B25,2013-05-31 13:44:00,
2013-05-31 09:49:00,84.6,70.1,30.00,NW,304,0.0,2.0,62,0.00,,,0.00,WeatherCatV1.15B25,2013-05-31 13:49:00,
2013-05-31 09:54:00,85.0,69.5,30.00,WSW,250,0.0,5.0,60,0.00,,,0.00,WeatherCatV1.15B25,2013-05-31 13:54:00,
2013-05-31 09:59:00,85.4,69.9,30.00,WSW,251,1.0,1.0,60,0.00,,,0.00,WeatherCatV1.15B25,2013-05-31 13:59:00,
2013-05-31 10:04:00,85.7,70.2,30.00,WSW,238,1.0,2.0,60,0.00,,,0.00,WeatherCatV1.15B25,2013-05-31 14:04:00,
2013-05-31 10:09:00,86.1,69.6,30.00,West,261,1.0,3.0,58,0.00,,,0.00,WeatherCatV1.15B25,2013-05-31 14:09:00,
2013-05-31 10:14:00,86.3,70.2,30.00,WSW,254,0.0,3.0,59,0.00,,,0.00,WeatherCatV1.15B25,2013-05-31 14:14:00,
2013-05-31 10:19:00,86.6,69.5,30.00,SSW,213,1.0,7.0,57,0.00,,,0.00,WeatherCatV1.15B25,2013-05-31 14:19:00,
2013-05-31 10:24:00,86.7,70.1,30.00,South,178,0.0,3.0,58,0.00,,,0.00,WeatherCatV1.15B25,2013-05-31 14:24:00,
2013-05-31 10:29:00,86.9,69.3,30.00,SW,236,0.0,2.0,56,0.00,,,0.00,WeatherCatV1.15B25,2013-05-31 14:29:00,
2013-05-31 10:34:00,87.3,69.6,29.99,WSW,247,0.0,1.0,56,0.00,,,0.00,WeatherCatV1.15B25,2013-05-31 14:34:00,
2013-05-31 10:39:00,87.8,67.9,29.99,South,186,1.0,4.0,52,0.00,,,0.00,WeatherCatV1.15B25,2013-05-31 14:39:00,
2013-05-31 10:44:00,87.9,68.6,29.99,South,180,0.0,1.0,53,0.00,,,0.00,WeatherCatV1.15B25,2013-05-31 14:44:00,
2013-05-31 10:49:00,88.1,68.8,29.99,SW,229,0.0,1.0,53,0.00,,,0.00,WeatherCatV1.15B25,2013-05-31 14:49:00,
2013-05-31 10:54:00,88.6,69.2,29.99,NNW,333,0.0,2.0,53,0.00,,,0.00,WeatherCatV1.15B25,2013-05-31 14:54:00,
2013-05-31 10:59:00,88.7,66.4,29.99,West,259,4.0,6.0,48,0.00,,,0.00,WeatherCatV1.15B25,2013-05-31 14:59:00,
2013-05-31 11:04:00,88.6,67.0,29.99,West,265,0.0,5.0,49,0.00,,,0.00,WeatherCatV1.15B25,2013-05-31 15:04:00,
2013-05-31 11:09:00,88.9,66.6,29.99,NW,314,0.0,3.0,48,0.00,,,0.00,WeatherCatV1.15B25,2013-05-31 15:09:00,
2013-05-31 11:14:00,89.3,67.6,29.99,WSW,246,2.0,5.0,49,0.00,,,0.00,WeatherCatV1.15B25,2013-05-31 15:14:00,
2013-05-31 11:19:00,89.3,67.6,29.98,West,277,1.0,6.0,49,0.00,,,0.00,WeatherCatV1.15B25,2013-05-31 15:19:00,
2013-05-31 11:24:00,89.2,67.5,29.98,WSW,244,8.0,11.0,49,0.00,,,0.00,WeatherCatV1.15B25,2013-05-31 15:24:00,
2013-05-31 11:29:00,88.8,67.7,29.98,WNW,286,0.0,1.0,50,0.00,,,0.00,WeatherCatV1.15B25,2013-05-31 15:29:00,
2013-05-31 11:34:00,89.3,68.2,29.98,West,264,0.0,3.0,50,0.00,,,0.00,WeatherCatV1.15B25,2013-05-31 15:34:00,
2013-05-31 11:39:00,89.6,67.3,29.98,West,264,0.0,4.0,48,0.00,,,0.00,WeatherCatV1.15B25,2013-05-31 15:39:00,
2013-05-31 11:44:00,89.7,68.5,29.98,West,259,1.0,2.0,50,0.00,,,0.00,WeatherCatV1.15B25,2013-05-31 15:44:00,
2013-05-31 11:49:00,89.7,69.1,29.98,NNW,327,1.0,5.0,51,0.00,,,0.00,WeatherCatV1.15B25,2013-05-31 15:49:00,
2013-05-31 11:54:00,89.5,68.4,29.98,SW,216,1.0,2.0,50,0.00,,,0.00,WeatherCatV1.15B25,2013-05-31 15:54:00,
2013-05-31 11:59:00,89.4,68.8,29.98,West,263,0.0,2.0,51,0.00,,,0.00,WeatherCatV1.15B25,2013-05-31 15:59:00,
2013-05-31 12:04:00,89.7,68.0,29.98,West,259,1.0,1.0,49,0.00,,,0.00,WeatherCatV1.15B25,2013-05-31 16:04:00,
2013-05-31 12:09:00,89.7,68.0,29.97,WSW,243,3.0,3.0,49,0.00,,,0.00,WeatherCatV1.15B25,2013-05-31 16:09:00,
2013-05-31 12:14:00,89.6,66.0,29.97,West,275,1.0,4.0,46,0.00,,,0.00,WeatherCatV1.15B25,2013-05-31 16:14:00,
2013-05-31 12:19:00,89.6,65.4,29.97,SW,227,3.0,5.0,45,0.00,,,0.00,WeatherCatV1.15B25,2013-05-31 16:19:00,
2013-05-31 12:24:00,90.0,64.5,29.97,SW,217,6.0,9.0,43,0.00,,,0.00,WeatherCatV1.15B25,2013-05-31 16:24:00,
2013-05-31 12:29:00,90.2,65.3,29.97,West,279,0.0,1.0,44,0.00,,,0.00,WeatherCatV1.15B25,2013-05-31 16:29:00,
2013-05-31 12:34:00,90.7,65.7,29.97,South,190,2.0,5.0,44,0.00,,,0.00,WeatherCatV1.15B25,2013-05-31 16:34:00,
2013-05-31 12:39:00,91.3,66.9,29.96,SSW,200,0.0,3.0,45,0.00,,,0.00,WeatherCatV1.15B25,2013-05-31 16:39:00,
2013-05-31 12:44:00,91.4,65.7,29.96,WSW,242,3.0,5.0,43,0.00,,,0.00,WeatherCatV1.15B25,2013-05-31 16:44:00,
2013-05-31 12:49:00,91.5,67.1,29.96,SSE,149,1.0,4.0,45,0.00,,,0.00,WeatherCatV1.15B25,2013-05-31 16:49:00,
2013-05-31 12:54:00,91.5,65.8,29.96,SSE,165,2.0,2.0,43,0.00,,,0.00,WeatherCatV1.15B25,2013-05-31 16:54:00,
2013-05-31 12:59:00,91.8,66.7,29.96,WSW,249,4.0,7.0,44,0.00,,,0.00,WeatherCatV1.15B25,2013-05-31 16:59:00,
2013-05-31 13:04:00,91.8,64.7,29.95,SSE,165,1.0,4.0,41,0.00,,,0.00,WeatherCatV1.15B25,2013-05-31 17:04:00,
2013-05-31 13:09:00,91.6,66.6,29.95,West,266,0.0,0.0,44,0.00,,,0.00,WeatherCatV1.15B25,2013-05-31 17:09:00,
2013-05-31 13:14:00,91.7,64.6,29.95,West,277,3.0,4.0,41,0.00,,,0.00,WeatherCatV1.15B25,2013-05-31 17:14:00,
2013-05-31 13:19:00,92.0,65.6,29.95,WSW,254,3.0,6.0,42,0.00,,,0.00,WeatherCatV1.15B25,2013-05-31 17:19:00,
2013-05-31 13:24:00,92.1,65.7,29.95,South,183,4.0,5.0,42,0.00,,,0.00,WeatherCatV1.15B25,2013-05-31 17:24:00,
2013-05-31 13:29:00,91.9,64.8,29.95,West,264,2.0,5.0,41,0.00,,,0.00,WeatherCatV1.15B25,2013-05-31 17:29:00,
2013-05-31 13:34:00,91.9,65.5,29.94,SE,135,4.0,5.0,42,0.00,,,0.00,WeatherCatV1.15B25,2013-05-31 17:34:00,
2013-05-31 13:39:00,91.8,64.7,29.94,SSE,159,0.0,5.0,41,0.00,,,0.00,WeatherCatV1.15B25,2013-05-31 17:39:00,
2013-05-31 13:44:00,92.0,66.2,29.94,WNW,301,0.0,3.0,43,0.00,,,0.00,WeatherCatV1.15B25,2013-05-31 17:44:00,
2013-05-31 13:49:00,92.1,66.3,29.94,SE,133,0.0,0.0,43,0.00,,,0.00,WeatherCatV1.15B25,2013-05-31 17:49:00,
2013-05-31 13:54:00,92.1,65.0,29.94,SW,219,2.0,9.0,41,0.00,,,0.00,WeatherCatV1.15B25,2013-05-31 17:54:00,
2013-05-31 13:59:00,92.2,64.3,29.93,SW,227,0.0,7.0,40,0.00,,,0.00,WeatherCatV1.15B25,2013-05-31 17:59:00,
2013-05-31 14:04:00,92.4,65.9,29.93,SSW,200,5.0,11.0,42,0.00,,,0.00,WeatherCatV1.15B25,2013-05-31 18:04:00,
2013-05-31 14:09:00,92.1,65.0,29.93,SE,135,0.0,3.0,41,0.00,,,0.00,WeatherCatV1.15B25,2013-05-31 18:09:00,
2013-05-31 14:16:00,92.8,64.9,29.93,West,259,1.0,5.0,40,0.00,,,0.00,WeatherCatV1.15B25,2013-05-31 18:16:00,
2013-05-31 14:21:00,93.1,65.9,29.93,NW,307,0.0,1.0,41,0.00,,,0.00,WeatherCatV1.15B25,2013-05-31 18:21:00,
2013-05-31 14:26:00,93.2,65.9,29.93,WSW,248,4.0,5.0,41,0.00,,,0.00,WeatherCatV1.15B25,2013-05-31 18:26:00,
2013-05-31 14:31:00,92.8,64.2,29.93,West,266,3.0,4.0,39,0.00,,,0.00,WeatherCatV1.15B25,2013-05-31 18:31:00,
2013-05-31 14:36:00,92.9,65.7,29.93,SE,136,3.0,5.0,41,0.00,,,0.00,WeatherCatV1.15B25,2013-05-31 18:36:00,
2013-05-31 14:41:00,92.6,65.4,29.92,WSW,246,3.0,8.0,41,0.00,,,0.00,WeatherCatV1.15B25,2013-05-31 18:41:00,
2013-05-31 14:46:00,91.9,65.5,29.92,West,269,3.0,8.0,42,0.00,,,0.00,WeatherCatV1.15B25,2013-05-31 18:46:00,
2013-05-31 14:51:00,91.9,66.8,29.92,South,180,2.0,2.0,44,0.00,,,0.00,WeatherCatV1.15B25,2013-05-31 18:51:00,
2013-05-31 14:56:00,92.3,66.5,29.92,SSW,204,0.0,5.0,43,0.00,,,0.00,WeatherCatV1.15B25,2013-05-31 18:56:00,
2013-05-31 15:01:00,92.5,67.4,29.92,WSW,240,11.0,11.0,44,0.00,,,0.00,WeatherCatV1.15B25,2013-05-31 19:01:00,
2013-05-31 15:06:00,92.2,66.4,29.92,SW,236,1.0,10.0,43,0.00,,,0.00,WeatherCatV1.15B25,2013-05-31 19:06:00,
2013-05-31 15:11:00,92.4,67.9,29.92,WSW,240,4.0,8.0,45,0.00,,,0.00,WeatherCatV1.15B25,2013-05-31 19:11:00,
2013-05-31 15:16:00,92.8,67.0,29.92,WSW,248,0.0,9.0,43,0.00,,,0.00,WeatherCatV1.15B25,2013-05-31 19:16:00,
2013-05-31 15:21:00,92.8,67.6,29.92,West,260,4.0,4.0,44,0.00,,,0.00,WeatherCatV1.15B25,2013-05-31 19:21:00,
2013-05-31 15:26:00,92.8,67.0,29.91,SSE,155,0.0,3.0,43,0.00,,,0.00,WeatherCatV1.15B25,2013-05-31 19:26:00,
2013-05-31 15:31:00,93.2,67.3,29.91,SW,226,0.0,7.0,43,0.00,,,0.00,WeatherCatV1.15B25,2013-05-31 19:31:00,
2013-05-31 15:36:00,93.4,65.4,29.91,WSW,258,0.0,3.0,40,0.00,,,0.00,WeatherCatV1.15B25,2013-05-31 19:36:00,
2013-05-31 15:41:00,93.3,66.0,29.91,WSW,254,1.0,10.0,41,0.00,,,0.00,WeatherCatV1.15B25,2013-05-31 19:41:00,
2013-05-31 15:46:00,92.9,66.4,29.91,SSE,154,0.0,1.0,42,0.00,,,0.00,WeatherCatV1.15B25,2013-05-31 19:46:00,
2013-05-31 15:51:00,92.6,66.1,29.91,WSW,252,0.0,10.0,42,0.00,,,0.00,WeatherCatV1.15B25,2013-05-31 19:51:00,
2013-05-31 15:56:00,92.7,66.9,29.91,SW,215,0.0,8.0,43,0.00,,,0.00,WeatherCatV1.15B25,2013-05-31 19:56:00,
2013-05-31 16:01:00,92.8,65.6,29.91,West,269,5.0,9.0,41,0.00,,,0.00,WeatherCatV1.15B25,2013-05-31 20:01:00,
2013-05-31 16:06:00,92.6,65.4,29.91,SSE,165,2.0,10.0,41,0.00,,,0.00,WeatherCatV1.15B25,2013-05-31 20:06:00,
2013-05-31 16:11:00,92.4,65.2,29.91,WSW,251,3.0,3.0,41,0.00,,,0.00,WeatherCatV1.15B25,2013-05-31 20:11:00,
2013-05-31 16:16:00,92.7,65.5,29.91,West,278,0.0,5.0,41,0.00,,,0.00,WeatherCatV1.15B25,2013-05-31 20:16:00,
2013-05-31 16:21:00,93.0,65.8,29.90,NW,304,0.0,4.0,41,0.00,,,0.00,WeatherCatV1.15B25,2013-05-31 20:21:00,
2013-05-31 16:26:00,93.1,63.7,29.90,SW,234,0.0,12.0,38,0.00,,,0.00,WeatherCatV1.15B25,2013-05-31 20:26:00,
2013-05-31 16:31:00,93.2,64.5,29.90,WSW,252,0.0,9.0,39,0.00,,,0.00,WeatherCatV1.15B25,2013-05-31 20:31:00,
2013-05-31 16:36:00,93.4,66.8,29.90,SSE,157,0.0,4.0,42,0.00,,,0.00,WeatherCatV1.15B25,2013-05-31 20:36:00,
2013-05-31 16:41:00,92.9,68.4,29.90,WSW,255,0.0,4.0,45,0.00,,,0.00,WeatherCatV1.15B25,2013-05-31 20:41:00,
2013-05-31 16:46:00,92.7,68.2,29.90,SSE,152,1.0,1.0,45,0.00,,,0.00,WeatherCatV1.15B25,2013-05-31 20:46:00,
2013-05-31 16:51:00,93.0,65.8,29.89,West,276,2.0,3.0,41,0.00,,,0.00,WeatherCatV1.15B25,2013-05-31 20:51:00,
2013-05-31 16:56:00,92.9,67.7,29.89,SE,140,1.0,3.0,44,0.00,,,0.00,WeatherCatV1.15B25,2013-05-31 20:56:00,
2013-05-31 17:01:00,92.3,68.5,29.89,SSE,148,2.0,4.0,46,0.00,,,0.00,WeatherCatV1.15B25,2013-05-31 21:01:00,
2013-05-31 17:06:00,91.7,67.9,29.89,South,187,1.0,5.0,46,0.00,,,0.00,WeatherCatV1.15B25,2013-05-31 21:06:00,
2013-05-31 17:11:00,91.5,66.5,29.89,SSW,198,0.0,7.0,44,0.00,,,0.00,WeatherCatV1.15B25,2013-05-31 21:11:00,
2013-05-31 17:16:00,92.0,64.2,29.88,SSE,166,0.0,3.0,40,0.00,,,0.00,WeatherCatV1.15B25,2013-05-31 21:16:00,
2013-05-31 17:21:00,92.5,64.6,29.88,SW,219,0.0,0.0,40,0.00,,,0.00,WeatherCatV1.15B25,2013-05-31 21:21:00,
2013-05-31 17:26:00,92.7,64.1,29.89,WSW,248,3.0,8.0,39,0.00,,,0.00,WeatherCatV1.15B25,2013-05-31 21:26:00,
2013-05-31 17:31:00,92.5,63.9,29.88,WNW,296,0.0,12.0,39,0.00,,,0.00,WeatherCatV1.15B25,2013-05-31 21:31:00,
2013-05-31 17:36:00,92.2,65.1,29.88,SSE,159,3.0,4.0,41,0.00,,,0.00,WeatherCatV1.15B25,2013-05-31 21:36:00,
2013-05-31 17:41:00,92.0,66.2,29.88,SW,225,0.0,5.0,43,0.00,,,0.00,WeatherCatV1.15B25,2013-05-31 21:41:00,
2013-05-31 17:46:00,91.8,67.4,29.88,WSW,257,0.0,5.0,45,0.00,,,0.00,WeatherCatV1.15B25,2013-05-31 21:46:00,
2013-05-31 17:51:00,91.5,67.1,29.88,WSW,241,7.0,9.0,45,0.00,,,0.00,WeatherCatV1.15B25,2013-05-31 21:51:00,
2013-05-31 17:56:00,91.1,66.8,29.88,WSW,245,2.0,6.0,45,0.00,,,0.00,WeatherCatV1.15B25,2013-05-31 21:56:00,
2013-05-31 18:01:00,90.8,66.5,29.87,South,177,1.0,6.0,45,0.00,,,0.00,WeatherCatV1.15B25,2013-05-31 22:01:00,
2013-05-31 18:06:00,90.7,67.0,29.87,WSW,256,6.0,6.0,46,0.00,,,0.00,WeatherCatV1.15B25,2013-05-31 22:06:00,
2013-05-31 18:11:00,90.5,67.5,29.87,South,179,1.0,4.0,47,0.00,,,0.00,WeatherCatV1.15B25,2013-05-31 22:11:00,
2013-05-31 18:16:00,90.3,67.3,29.87,SW,227,0.0,9.0,47,0.00,,,0.00,WeatherCatV1.15B25,2013-05-31 22:16:00,
2013-05-31 18:21:00,90.1,67.7,29.87,SSE,163,0.0,5.0,48,0.00,,,0.00,WeatherCatV1.15B25,2013-05-31 22:21:00,
2013-05-31 18:26:00,89.8,67.4,29.87,WSW,248,3.0,5.0,48,0.00,,,0.00,WeatherCatV1.15B25,2013-05-31 22:26:00,
2013-05-31 18:31:00,89.6,67.3,29.87,SW,225,0.0,5.0,48,0.00,,,0.00,WeatherCatV1.15B25,2013-05-31 22:31:00,
2013-05-31 18:36:00,89.4,67.7,29.87,SE,145,0.0,4.0,49,0.00,,,0.00,WeatherCatV1.15B25,2013-05-31 22:36:00,
2013-05-31 18:41:00,89.2,67.5,29.87,SSE,156,3.0,7.0,49,0.00,,,0.00,WeatherCatV1.15B25,2013-05-31 22:41:00,
2013-05-31 18:46:00,88.9,67.2,29.87,SW,227,0.0,3.0,49,0.00,,,0.00,WeatherCatV1.15B25,2013-05-31 22:46:00,
2013-05-31 18:51:00,88.7,67.6,29.87,SW,228,2.0,7.0,50,0.00,,,0.00,WeatherCatV1.15B25,2013-05-31 22:51:00,
2013-05-31 18:57:00,88.4,67.9,29.87,SW,219,2.0,7.0,51,0.00,,,0.00,WeatherCatV1.15B25,2013-05-31 22:57:00,
2013-05-31 19:02:00,88.2,67.7,29.87,SSW,202,1.0,10.0,51,0.00,,,0.00,WeatherCatV1.15B25,2013-05-31 23:02:00,
2013-05-31 19:07:00,87.9,67.5,29.87,WSW,238,5.0,5.0,51,0.00,,,0.00,WeatherCatV1.15B25,2013-05-31 23:07:00,
2013-05-31 19:12:00,87.7,67.9,29.87,South,172,1.0,3.0,52,0.00,,,0.00,WeatherCatV1.15B25,2013-05-31 23:12:00,
2013-05-31 19:17:00,87.5,68.2,29.87,South,179,0.0,4.0,53,0.00,,,0.00,WeatherCatV1.15B25,2013-05-31 23:17:00,
2013-05-31 19:22:00,87.2,67.9,29.87,SSW,211,0.0,6.0,53,0.00,,,0.00,WeatherCatV1.15B25,2013-05-31 23:22:00,
2013-05-31 19:27:00,86.9,67.7,29.87,WSW,242,3.0,6.0,53,0.00,,,0.00,WeatherCatV1.15B25,2013-05-31 23:27:00,
2013-05-31 19:32:00,86.7,68.0,29.87,West,269,0.0,4.0,54,0.00,,,0.00,WeatherCatV1.15B25,2013-05-31 23:32:00,
2013-05-31 19:37:00,86.4,67.8,29.88,WSW,258,0.0,0.0,54,0.00,,,0.00,WeatherCatV1.15B25,2013-05-31 23:37:00,
2013-05-31 19:42:00,86.1,67.5,29.88,SE,132,0.0,3.0,54,0.00,,,0.00,WeatherCatV1.15B25,2013-05-31 23:42:00,
2013-05-31 19:47:00,85.9,67.8,29.88,WSW,237,0.0,0.0,55,0.00,,,0.00,WeatherCatV1.15B25,2013-05-31 23:47:00,
2013-05-31 19:52:00,85.6,67.5,29.88,WSW,243,0.0,1.0,55,0.00,,,0.00,WeatherCatV1.15B25,2013-05-31 23:52:00,
2013-05-31 19:57:00,85.3,67.3,29.88,WSW,257,0.0,0.0,55,0.00,,,0.00,WeatherCatV1.15B25,2013-05-31 23:57:00,
2013-05-31 20:02:00,85.0,67.0,29.88,WSW,253,0.0,1.0,55,0.00,,,0.00,WeatherCatV1.15B25,2013-06-01 00:02:00,
2013-05-31 20:07:00,84.8,67.3,29.88,West,261,0.0,5.0,56,0.00,,,0.00,WeatherCatV1.15B25,2013-06-01 00:07:00,
2013-05-31 20:12:00,84.6,67.1,29.88,WSW,244,1.0,6.0,56,0.00,,,0.00,WeatherCatV1.15B25,2013-06-01 00:12:00,
2013-05-31 20:17:00,84.3,67.4,29.88,SW,228,0.0,1.0,57,0.00,,,0.00,WeatherCatV1.15B25,2013-06-01 00:17:00,
2013-05-31 20:22:00,84.1,67.2,29.88,WSW,243,0.0,1.0,57,0.00,,,0.00,WeatherCatV1.15B25,2013-06-01 00:22:00,
2013-05-31 20:27:00,83.8,67.4,29.89,WSW,243,0.0,5.0,58,0.00,,,0.00,WeatherCatV1.15B25,2013-06-01 00:27:00,
2013-05-31 20:32:00,83.5,67.1,29.89,WSW,243,0.0,4.0,58,0.00,,,0.00,WeatherCatV1.15B25,2013-06-01 00:32:00,
2013-05-31 20:37:00,83.3,67.4,29.89,West,259,0.0,0.0,59,0.00,,,0.00,WeatherCatV1.15B25,2013-06-01 00:37:00,
2013-05-31 20:42:00,83.0,67.2,29.89,SSE,161,0.0,7.0,59,0.00,,,0.00,WeatherCatV1.15B25,2013-06-01 00:42:00,
2013-05-31 20:47:00,82.9,67.6,29.89,SW,221,0.0,3.0,60,0.00,,,0.00,WeatherCatV1.15B25,2013-06-01 00:47:00,
2013-05-31 20:52:00,82.7,67.4,29.90,WSW,252,0.0,1.0,60,0.00,,,0.00,WeatherCatV1.15B25,2013-06-01 00:52:00,
2013-05-31 20:57:00,82.4,67.6,29.90,West,269,0.0,0.0,61,0.00,,,0.00,WeatherCatV1.15B25,2013-06-01 00:57:00,
2013-05-31 21:02:00,82.1,67.8,29.90,WSW,249,0.0,0.0,62,0.00,,,0.00,WeatherCatV1.15B25,2013-06-01 01:02:00,
2013-05-31 21:07:00,81.9,67.1,29.90,WSW,242,0.0,3.0,61,0.00,,,0.00,WeatherCatV1.15B25,2013-06-01 01:07:00,
2013-05-31 21:12:00,81.8,67.0,29.90,WSW,237,1.0,5.0,61,0.00,,,0.00,WeatherCatV1.15B25,2013-06-01 01:12:00,
2013-05-31 21:17:00,81.7,66.9,29.90,West,263,0.0,0.0,61,0.00,,,0.00,WeatherCatV1.15B25,2013-06-01 01:17:00,
2013-05-31 21:22:00,81.6,67.3,29.90,WSW,256,0.0,0.0,62,0.00,,,0.00,WeatherCatV1.15B25,2013-06-01 01:22:00,
2013-05-31 21:27:00,81.4,67.1,29.90,West,259,0.0,1.0,62,0.00,,,0.00,WeatherCatV1.15B25,2013-06-01 01:27:00,
2013-05-31 21:32:00,81.1,66.8,29.91,WSW,247,1.0,2.0,62,0.00,,,0.00,WeatherCatV1.15B25,2013-06-01 01:32:00,
2013-05-31 21:37:00,80.9,66.6,29.91,WSW,254,0.0,4.0,62,0.00,,,0.00,WeatherCatV1.15B25,2013-06-01 01:37:00,
2013-05-31 21:42:00,80.6,66.8,29.91,SW,231,0.0,8.0,63,0.00,,,0.00,WeatherCatV1.15B25,2013-06-01 01:42:00,
2013-05-31 21:47:00,80.4,67.1,29.91,WSW,248,1.0,1.0,64,0.00,,,0.00,WeatherCatV1.15B25,2013-06-01 01:47:00,
2013-05-31 21:52:00,80.2,66.4,29.91,WSW,248,0.0,3.0,63,0.00,,,0.00,WeatherCatV1.15B25,2013-06-01 01:52:00,
2013-05-31 21:57:00,80.0,66.7,29.91,WSW,247,0.0,2.0,64,0.00,,,0.00,WeatherCatV1.15B25,2013-06-01 01:57:00,
2013-05-31 22:02:00,79.8,66.5,29.91,SW,231,0.0,2.0,64,0.00,,,0.00,WeatherCatV1.15B25,2013-06-01 02:02:00,
2013-05-31 22:07:00,79.5,66.2,29.91,West,277,0.0,0.0,64,0.00,,,0.00,WeatherCatV1.15B25,2013-06-01 02:07:00,
2013-05-31 22:12:00,79.4,66.1,29.91,WSW,255,0.0,1.0,64,0.00,,,0.00,WeatherCatV1.15B25,2013-06-01 02:12:00,
2013-05-31 22:17:00,79.2,65.9,29.91,WSW,254,0.0,1.0,64,0.00,,,0.00,WeatherCatV1.15B25,2013-06-01 02:17:00,
2013-05-31 22:22:00,79.0,65.8,29.91,SW,222,0.0,3.0,64,0.00,,,0.00,WeatherCatV1.15B25,2013-06-01 02:22:00,
2013-05-31 22:27:00,78.8,65.6,29.91,WSW,242,0.0,5.0,64,0.00,,,0.00,WeatherCatV1.15B25,2013-06-01 02:27:00,
2013-05-31 22:32:00,78.7,65.5,29.91,WSW,244,3.0,3.0,64,0.00,,,0.00,WeatherCatV1.15B25,2013-06-01 02:32:00,
2013-05-31 22:37:00,78.5,65.3,29.91,WSW,257,0.0,2.0,64,0.00,,,0.00,WeatherCatV1.15B25,2013-06-01 02:37:00,
2013-05-31 22:42:00,78.2,65.4,29.91,West,263,0.0,2.0,65,0.00,,,0.00,WeatherCatV1.15B25,2013-06-01 02:42:00,
2013-05-31 22:47:00,78.0,65.3,29.91,SW,214,0.0,2.0,65,0.00,,,0.00,WeatherCatV1.15B25,2013-06-01 02:47:00,
2013-05-31 22:52:00,77.9,65.2,29.91,SW,236,0.0,0.0,65,0.00,,,0.00,WeatherCatV1.15B25,2013-06-01 02:52:00,
2013-05-31 22:57:00,77.7,65.4,29.91,SW,236,0.0,1.0,66,0.00,,,0.00,WeatherCatV1.15B25,2013-06-01 02:57:00,
2013-05-31 23:02:00,77.5,64.8,29.91,WSW,252,0.0,2.0,65,0.00,,,0.00,WeatherCatV1.15B25,2013-06-01 03:02:00,
2013-05-31 23:07:00,77.3,65.0,29.91,WSW,248,0.0,2.0,66,0.00,,,0.00,WeatherCatV1.15B25,2013-06-01 03:07:00,
2013-05-31 23:12:00,77.1,64.8,29.91,WSW,246,0.0,5.0,66,0.00,,,0.00,WeatherCatV1.15B25,2013-06-01 03:12:00,
2013-05-31 23:17:00,77.0,64.3,29.91,WSW,241,4.0,4.0,65,0.00,,,0.00,WeatherCatV1.15B25,2013-06-01 03:17:00,
2013-05-31 23:22:00,77.0,64.3,29.91,West,266,0.0,0.0,65,0.00,,,0.00,WeatherCatV1.15B25,2013-06-01 03:22:00,
2013-05-31 23:27:00,76.8,64.1,29.91,West,265,0.0,3.0,65,0.00,,,0.00,WeatherCatV1.15B25,2013-06-01 03:27:00,
2013-05-31 23:32:00,76.7,64.0,29.91,West,274,0.0,3.0,65,0.00,,,0.00,WeatherCatV1.15B25,2013-06-01 03:32:00,
2013-05-31 23:37:00,76.4,64.2,29.92,WSW,246,0.0,2.0,66,0.00,,,0.00,WeatherCatV1.15B25,2013-06-01 03:37:00,
2013-05-31 23:42:00,76.2,64.0,29.92,WSW,246,0.0,0.0,66,0.00,,,0.00,WeatherCatV1.15B25,2013-06-01 03:42:00,
2013-05-31 23:47:00,76.0,63.8,29.92,WSW,245,0.0,2.0,66,0.00,,,0.00,WeatherCatV1.15B25,2013-06-01 03:47:00,
2013-05-31 23:52:00,75.8,64.0,29.92,WSW,245,0.0,0.0,67,0.00,,,0.00,WeatherCatV1.15B25,2013-06-01 03:52:00,
2013-05-31 23:57:00,75.6,63.9,29.92,WSW,245,0.0,0.0,67,0.00,,,0.00,WeatherCatV1.15B25,2013-06-01 03:57:00,